Skip Page Navigation
NASA JPL Caltech
NASA Logo - Jet Propulsion Laboratory + View the NASA Portal
+ Center for Near-Earth Object Studies
JPL Home Earth Solar System Stars & Galaxies Technology
JPL Solar System Dynamics
BODIES ORBITS EPHEMERIDES TOOLS PHYSICAL DATA DISCOVERY FAQ SITE MAP
JPL Small-Body Database Browser
Search: [ help ]  
362172 (2009 FD15)
Classification: Main-belt Asteroid          SPK-ID: 2362172
Ephemeris | Orbit Diagram | Orbital Elements | Mission Design | Physical Parameters | Discovery Circumstances | Close-Approach Data ]

[ show orbit diagram ]
Orbital Elements at Epoch 2459200.5 (2020-Dec-17.0) TDB
Reference: JPL 11 (heliocentric ecliptic J2000)
 Element Value Uncertainty (1-sigma)   Units 
e .1761570208941982 5.8804e-08  
a 2.376437060701109 1.9279e-08 au
q 1.957810987745436 1.3997e-07 au
i 2.964021543684409 6.627e-06 deg
node 173.3936602213527 0.00012163 deg
peri 81.87872338930418 0.00012418 deg
M 4.970850226519822 2.3047e-05 deg
tp 2459182.023654324299
(2020-Nov-28.52365432)
8.5568e-05 TDB
period 1338.097939013809
3.66
1.6283e-05
4.458e-08
d
yr
n .2690386028584152 3.2739e-09 deg/d
Q 2.795063133656781 2.2675e-08 au
  Orbit Determination Parameters
   # obs. used (total)      123  
   data-arc span      7531 days (20.62 yr)  
   first obs. used      1999-09-05  
   last obs. used      2020-04-18  
   planetary ephem.      DE441  
   SB-pert. ephem.      SB441-N16  
   condition code      0  
   norm. resid. RMS      .65512  
   source      ORB  
   producer      Otto Matic  
   solution date      2021-Apr-14 09:38:30  

Additional Information
 Earth MOID = .944146 au 
 Jupiter MOID = 2.25493 au 
 T_jup = 3.518 
[ show covariance matrix ]

Ephemeris | Orbit Diagram | Orbital Elements | Mission Design | Physical Parameters | Discovery Circumstances | Close-Approach Data ]

Physical Parameter Table
Parameter Symbol Value Units Sigma Reference Notes
absolute magnitude H 17.89   n/a E2021B25  

362172 (2009 FD15)          Discovered 2009-Mar-16 by Spacewatch at Kitt Peak
Reference: Last Updated: 2013-04-29

[ show close-approach data ]
Ephemeris | Orbit Diagram | Orbital Elements | Mission Design | Physical Parameters | Discovery Circumstances | Close-Approach Data ]
ABOUT SSD CREDITS/AWARDS PRIVACY/COPYRIGHT GLOSSARY LINKS
FirstGov 2021-Jun-21 08:36 UT
(server date/time)  
NASA Home Page
Site Manager:   Ryan S. Park
Webmaster  Alan B. Chamberlin